Location: Unspecified
(35.3830°S, 0.0000°E)
Time: 20:01:53
(UTC+00:00)

OTV 5 (USA 277) - Visible Passes

Search period start: 24 May 2019 00:00
Search period end: 03 June 2019 00:00
Orbit: 310 x 325 km, 54.5° (Epoch: 08 May)

Date Brightness Start Highest point End Pass type
(mag) Time Alt. Az. Time Alt. Az. Time Alt. Az.
26 May ? 18:19:57 10° N 18:21:33 23° NNE 18:21:33 23° NNE visible
27 May ? 18:34:13 10° NW 18:36:20 50° WNW 18:36:20 50° WNW visible
28 May ? 18:49:26 10° W 18:51:02 21° WSW 18:51:02 21° WSW visible
29 May ? 17:29:30 10° NNW 17:32:08 51° NE 17:34:43 11° SE visible
30 May ? 17:44:16 10° WNW 17:46:51 40° SW 17:49:15 12° SSE visible
31 May ? 18:00:00 10° WSW 18:01:45 15° SW 18:03:31 10° S visible
